When you browse on this site, cookies collect data to enhance your experience and personalize the content and advertising you see.
Visit our Privacy Policy to learn more. By continuing to use the site, you agree to this use of cookies and data.
  • In Österreich
  • Länderverzeichnis
  • Für 7 Tage
  • Wassertemperatur
  • Satellitenkarten
  • Wetterkarte
  • News
  • Widgets
  • user-avatar
    Anmelden

    Stündliche Wetter Maun

    Heute, 12 Dezember, Mittwoch

    Zeit Temperatur Niederschläge Wind Luftdruck Luftfeuchtigkeit
    00:00 +29°C° 0 mm 3 m/S 681 mmHg 29%
    01:00 +28°C° 0 mm 4 m/S 681 mmHg 31%
    02:00 +28°C° 0 mm 4 m/S 681 mmHg 33%
    03:00 +27°C° 0 mm 4 m/S 681 mmHg 37%
    04:00 +26°C° 0 mm 4 m/S 681 mmHg 41%
    05:00 +25°C° 0 mm 4 m/S 681 mmHg 45%
    06:00 +26°C° 0 mm 4 m/S 681 mmHg 43%
    07:00 +26°C° 0 mm 4 m/S 682 mmHg 41%
    08:00 +28°C° 0 mm 5 m/S 683 mmHg 38%
    09:00 +30°C° 0 mm 4 m/S 683 mmHg 32%
    10:00 +33°C° 0 mm 4 m/S 683 mmHg 26%
    11:00 +36°C° 0 mm 4 m/S 683 mmHg 20%
    12:00 +37°C° 0 mm 4 m/S 683 mmHg 17%
    13:00 +38°C° 0 mm 4 m/S 682 mmHg 15%
    14:00 +38°C° 0 mm 3 m/S 683 mmHg 14%
    15:00 +38°C° 0 mm 4 m/S 682 mmHg 14%
    16:00 +37°C° 0 mm 4 m/S 682 mmHg 13%
    17:00 +37°C° 0 mm 4 m/S 681 mmHg 13%
    18:00 +36°C° 0 mm 4 m/S 681 mmHg 14%
    19:00 +34°C° 0 mm 3 m/S 681 mmHg 16%
    20:00 +31°C° 0 mm 3 m/S 681 mmHg 18%
    21:00 +30°C° 0 mm 2 m/S 681 mmHg 19%
    22:00 +29°C° 0 mm 2 m/S 682 mmHg 20%
    23:00 +28°C° 0 mm 2 m/S 682 mmHg 21%

    Morgen, 13 Dezember, Donnerstag

    Zeit Temperatur Niederschläge Wind Luftdruck Luftfeuchtigkeit
    00:00 +28°C° 0 mm 2 m/S 682 mmHg 21%
    01:00 +27°C° 0 mm 2 m/S 682 mmHg 21%
    02:00 +27°C° 0 mm 2 m/S 682 mmHg 21%
    03:00 +26°C° 0 mm 2 m/S 682 mmHg 22%
    04:00 +26°C° 0 mm 2 m/S 681 mmHg 22%
    05:00 +25°C° 0 mm 2 m/S 681 mmHg 23%
    06:00 +27°C° 0 mm 2 m/S 682 mmHg 22%
    07:00 +28°C° 0 mm 3 m/S 683 mmHg 21%
    08:00 +30°C° 0 mm 3 m/S 683 mmHg 21%
    09:00 +34°C° 0 mm 3 m/S 683 mmHg 18%
    10:00 +36°C° 0 mm 3 m/S 684 mmHg 15%
    11:00 +40°C° 0 mm 4 m/S 684 mmHg 13%
    12:00 +40°C° 0 mm 4 m/S 684 mmHg 12%
    13:00 +41°C° 0 mm 5 m/S 683 mmHg 11%
    14:00 +42°C° 0 mm 5 m/S 683 mmHg 10%
    15:00 +42°C° 0 mm 5 m/S 682 mmHg 10%
    16:00 +42°C° 0 mm 5 m/S 682 mmHg 10%
    17:00 +41°C° 0 mm 5 m/S 681 mmHg 10%
    18:00 +39°C° 0 mm 5 m/S 681 mmHg 12%
    19:00 +36°C° 0 mm 4 m/S 681 mmHg 14%
    20:00 +35°C° 0 mm 4 m/S 681 mmHg 16%
    21:00 +34°C° 0 mm 3 m/S 681 mmHg 17%
    22:00 +32°C° 0 mm 2 m/S 682 mmHg 18%
    23:00 +31°C° 0 mm 2 m/S 682 mmHg 19%

    übermorgen, 14 Dezember, Freitag

    Zeit Temperatur Niederschläge Wind Luftdruck Luftfeuchtigkeit
    00:00 +30°C° 0 mm 2 m/S 682 mmHg 20%
    01:00 +30°C° 0 mm 2 m/S 682 mmHg 21%
    02:00 +29°C° 0 mm 3 m/S 681 mmHg 21%
    03:00 +29°C° 0 mm 3 m/S 681 mmHg 23%
    04:00 +28°C° 0 mm 3 m/S 682 mmHg 25%
    05:00 +27°C° 0 mm 3 m/S 682 mmHg 27%
    06:00 +29°C° 0 mm 3 m/S 682 mmHg 26%
    07:00 +30°C° 0 mm 3 m/S 683 mmHg 25%
    08:00 +33°C° 0 mm 4 m/S 683 mmHg 24%
    09:00 +35°C° 0 mm 4 m/S 684 mmHg 21%
    10:00 +37°C° 0 mm 4 m/S 684 mmHg 17%
    11:00 +41°C° 0 mm 4 m/S 684 mmHg 14%
    12:00 +41°C° 0 mm 5 m/S 684 mmHg 13%
    13:00 +42°C° 0 mm 5 m/S 683 mmHg 12%
    14:00 +43°C° 0 mm 5 m/S 682 mmHg 11%
    15:00 +44°C° 0 mm 6 m/S 682 mmHg 11%
    16:00 +42°C° 0 mm 6 m/S 681 mmHg 11%
    17:00 +42°C° 0 mm 6 m/S 681 mmHg 11%
    18:00 +40°C° 0 mm 5 m/S 681 mmHg 13%
    19:00 +37°C° 0 mm 4 m/S 681 mmHg 15%
    20:00 +35°C° 0 mm 2 m/S 681 mmHg 17%
    21:00 +34°C° 0 mm 3 m/S 681 mmHg 18%
    22:00 +34°C° 0 mm 3 m/S 682 mmHg 19%
    23:00 +33°C° 0 mm 4 m/S 682 mmHg 20%

    15 Dezember, Samstag

    Zeit Temperatur Niederschläge Wind Luftdruck Luftfeuchtigkeit
    00:00 +33°C° 0 mm 4 m/S 682 mmHg 23%
    01:00 +32°C° 0 mm 4 m/S 682 mmHg 27%
    02:00 +30°C° 0 mm 5 m/S 682 mmHg 30%
    03:00 +29°C° 0 mm 5 m/S 682 mmHg 32%
    04:00 +28°C° 0 mm 4 m/S 682 mmHg 33%
    05:00 +28°C° 0 mm 4 m/S 682 mmHg 35%
    06:00 +29°C° 0 mm 5 m/S 683 mmHg 34%
    07:00 +29°C° 0 mm 5 m/S 683 mmHg 33%
    08:00 +30°C° 0 mm 6 m/S 684 mmHg 33%
    09:00 +33°C° 0 mm 5 m/S 684 mmHg 28%
    10:00 +36°C° 0 mm 5 m/S 684 mmHg 23%
    11:00 +38°C° 0 mm 4 m/S 684 mmHg 19%
    12:00 +40°C° 0 mm 5 m/S 683 mmHg 16%
    13:00 +41°C° 0 mm 5 m/S 683 mmHg 14%
    14:00 +42°C° 0 mm 5 m/S 682 mmHg 11%
    15:00 +42°C° 0 mm 5 m/S 681 mmHg 11%
    16:00 +41°C° 0 mm 5 m/S 681 mmHg 11%
    17:00 +41°C° 0 mm 6 m/S 680 mmHg 11%
    18:00 +39°C° 0 mm 5 m/S 680 mmHg 13%
    19:00 +36°C° 0 mm 4 m/S 681 mmHg 15%
    20:00 +34°C° 0 mm 3 m/S 681 mmHg 17%
    21:00 +33°C° 0 mm 3 m/S 681 mmHg 18%
    22:00 +32°C° 0 mm 2 m/S 681 mmHg 19%
    23:00 +31°C° 0 mm 2 m/S 682 mmHg 20%

    16 Dezember, Sonntag

    Zeit Temperatur Niederschläge Wind Luftdruck Luftfeuchtigkeit
    00:00 +30°C° 0 mm 2 m/S 681 mmHg 22%
    01:00 +29°C° 0 mm 2 m/S 681 mmHg 24%
    02:00 +29°C° 0 mm 3 m/S 681 mmHg 26%
    03:00 +28°C° 0 mm 3 m/S 681 mmHg 29%
    04:00 +27°C° 0 mm 2 m/S 681 mmHg 32%
    05:00 +27°C° 0 mm 2 m/S 681 mmHg 35%
    06:00 +28°C° 0 mm 3 m/S 682 mmHg 33%
    07:00 +30°C° 0 mm 3 m/S 682 mmHg 31%
    08:00 +32°C° 0 mm 4 m/S 683 mmHg 30%
    09:00 +34°C° 0 mm 4 m/S 683 mmHg 26%
    10:00 +36°C° 0 mm 4 m/S 683 mmHg 21%
    11:00 +40°C° 0 mm 4 m/S 683 mmHg 17%
    12:00 +40°C° 0 mm 4 m/S 683 mmHg 15%
    13:00 +41°C° 0 mm 5 m/S 682 mmHg 13%
    14:00 +42°C° 0 mm 6 m/S 681 mmHg 11%
    15:00 +42°C° 0 mm 5 m/S 681 mmHg 11%
    16:00 +42°C° 0 mm 5 m/S 680 mmHg 10%
    17:00 +41°C° 0 mm 5 m/S 679 mmHg 10%
    18:00 +39°C° 0 mm 5 m/S 680 mmHg 12%
    19:00 +36°C° 0 mm 4 m/S 680 mmHg 15%
    20:00 +34°C° 0 mm 3 m/S 680 mmHg 17%
    21:00 +34°C° 0 mm 3 m/S 680 mmHg 19%
    22:00 +33°C° 0 mm 3 m/S 680 mmHg 21%
    23:00 +31°C° 0 mm 2 m/S 681 mmHg 22%

    17 Dezember, Montag

    Zeit Temperatur Niederschläge Wind Luftdruck Luftfeuchtigkeit
    00:00 +30°C° 0 mm 2 m/S 680 mmHg 26%
    01:00 +30°C° 0 mm 2 m/S 680 mmHg 30%
    02:00 +29°C° 0 mm 2 m/S 680 mmHg 33%
    03:00 +28°C° 0 mm 2 m/S 680 mmHg 36%
    04:00 +28°C° 0 mm 2 m/S 680 mmHg 39%
    05:00 +27°C° 0 mm 2 m/S 680 mmHg 42%
    06:00 +29°C° 0 mm 3 m/S 681 mmHg 40%
    07:00 +30°C° 0 mm 3 m/S 682 mmHg 39%
    08:00 +32°C° 0 mm 4 m/S 683 mmHg 38%
    09:00 +34°C° 0 mm 4 m/S 683 mmHg 35%
    10:00 +36°C° 0 mm 4 m/S 683 mmHg 31%
    11:00 +37°C° 0 mm 3 m/S 683 mmHg 28%
    12:00 +37°C° 0 mm 3 m/S 682 mmHg 28%
    13:00 +37°C° 0 mm 3 m/S 681 mmHg 27%
    14:00 +37°C° 0 mm 3 m/S 681 mmHg 27%
    15:00 +37°C° 0 mm 3 m/S 680 mmHg 27%
    16:00 +37°C° 0 mm 3 m/S 680 mmHg 27%
    17:00 +37°C° 0 mm 3 m/S 680 mmHg 27%
    18:00 +36°C° 0 mm 3 m/S 680 mmHg 29%
    19:00 +34°C° 0 mm 2 m/S 680 mmHg 32%
    20:00 +32°C° 0 mm 2 m/S 680 mmHg 34%
    21:00 +31°C° 0 mm 2 m/S 680 mmHg 36%
    22:00 +31°C° 0 mm 2 m/S 681 mmHg 38%
    23:00 +30°C° 0 mm 2 m/S 681 mmHg 41%
    Mehr zeigen